Location: B?jaj?g
(11.7167°N, 92.6667°E)
Time: 05:00:42
(UTC+00:00)

ARIANE 5 R/B - Pass Details

Date: 18 September 2020
Orbit: 556 x 35569 km, 5.2° (Epoch: 20 October)

Event Time Altitude Azimuth Distance (km) Brightness Sun altitude
Rises 12:58:44 0° 248° (WSW) 2,812 7.0 -18.1°
Reaches altitude 10° 13:01:11 10° 225° (SW) 1,822 5.5 -18.7°
Maximum altitude 13:03:43 19° 174° (S) 1,534 4.4 -19.3°
Enters shadow 13:04:45 18° 155° (SSE) 1,746 4.6 -19.6°
